Wind_Speed
11 12 12 10 12 14 13 13 13 14 18 20 23 26 26 27 29 29 29 29 30 32 32 31 31 29 28 26 24 22 21 20 20 20 21 21 22 23 23 24 25 25 26 27
7 7 8 10 12 16 17 15 13 16 19 19 21 24 27 29 29 29 28 30 31 32 31 30 31 31 30 27 25 24 22 21 22 22 23 24 25 26 27 28 29 29 30 30
8 8 9 12 14 17 19 18 15 15 16 18 21 23 26 28 29 28 27 29 31 33 32 32 32 31 29 28 26 26 24 24 25 25 25 26 27 28 30 32 33 33 33 33
10 11 12 14 15 16 16 16 17 16 16 17 19 20 24 25 28 30 30 29 31 30 29 28 29 29 29 29 28 28 27 27 27 27 27 28 29 30 31 33 35 36 35 35
9 11 13 13 12 14 12 12 16 16 18 19 18 19 23 24 27 30 31 31 29 29 28 28 29 30 31 30 30 29 29 29 29 30 29 30 30 31 33 34 33 34 35 35
9 11 11 12 13 14 14 13 14 15 17 20 20 21 24 24 26 28 29 29 28 27 27 27 29 30 31 32 32 32 31 31 31 33 32 32 33 34 35 35 35 34 35 35
6 8 10 12 13 16 16 15 12 12 16 18 17 22 28 27 24 25 26 27 28 27 27 27 29 30 32 33 32 32 32 32 33 34 34 34 34 35 35 35 35 35 35 35
7 9 10 11 14 14 16 18 16 12 13 13 17 26 29 26 21 22 22 24 26 27 26 27 28 30 32 32 33 34 35 35 36 37 37 36 35 36 37 36 36 37 36 35
7 8 8 9 12 14 14 19 17 16 16 16 24 30 29 27 24 21 22 23 24 25 25 25 26 27 29 31 34 35 36 37 37 38 39 38 38 38 38 38 38 39 38 38
5 5 7 9 11 14 15 16 15 14 13 16 22 27 27 24 24 23 23 23 24 25 25 25 25 26 28 30 32 32 34 35 36 38 39 38 38 39 40 40 41 41 41 40
6 5 8 9 11 13 17 19 18 15 14 14 16 21 26 26 24 24 25 25 25 25 25 26 27 27 28 29 30 31 33 34 36 37 37 37 39 41 42 42 43 42 41 42
8 6 8 9 11 12 14 17 19 18 17 14 16 19 18 21 22 23 23 25 26 26 26 27 28 29 30 31 32 33 33 34 36 36 37 38 40 41 42 43 43 43 44 44
7 7 6 9 11 14 14 16 19 22 20 17 18 21 15 12 15 17 19 22 25 26 27 27 28 29 31 32 33 34 35 35 36 38 38 39 41 42 43 43 44 44 45 45
6 8 7 9 10 13 15 14 17 20 20 19 23 24 22 18 16 16 18 20 23 25 27 29 30 31 32 34 35 35 36 37 38 39 40 41 42 43 43 44 44 45 46 46
4 4 4 4 8 11 11 13 16 19 23 25 24 22 19 18 18 18 20 22 24 26 27 28 30 31 32 34 35 36 37 38 39 40 41 41 42 43 43 43 44 44 44 45
3 1 1 1 4 8 9 13 16 17 21 25 26 25 24 22 20 20 20 22 24 26 27 28 30 31 32 33 35 36 37 38 38 39 40 40 41 41 41 41 42 42 42 43
2 2 0 1 4 7 8 11 14 16 19 22 24 26 27 26 25 23 23 23 24 26 27 28 30 31 32 33 34 35 35 35 35 36 36 37 37 38 38 38 38 39 39 39
3 2 2 1 4 6 8 10 13 16 19 21 23 25 25 24 24 24 22 23 23 24 25 26 27 28 28 29 30 30 31 32 32 33 34 34 34 35 35 35 36 36 36 37
6 4 3 2 4 7 8 10 12 14 16 18 20 22 23 22 22 22 22 22 23 22 22 23 23 24 25 26 27 27 28 28 29 30 30 30 30 30 31 31 31 32 33 34
7 6 4 3 5 8 9 10 12 14 14 15 17 18 19 19 19 19 19 20 21 21 22 23 24 24 24 25 25 25 25 25 26 26 27 27 27 27 27 28 29 30 30 31
7 7 6 6 6 7 9 10 11 12 13 14 14 15 15 15 16 16 16 17 18 18 19 20 20 21 21 21 22 22 23 23 23 23 24 24 24 24 25 26 26 26 27 27
8 8 8 8 8 9 10 11 11 12 11 11 12 12 11 12 12 12 13 14 15 15 16 16 17 18 18 19 20 20 21 21 20 20 21 21 21 22 22 23 23 23 24 24
8 9 9 9 9 10 10 11 11 11 11 10 10 9 9 9 9 10 11 12 12 13 14 14 14 15 16 16 17 17 18 18 19 19 19 19 20 20 20 21 21 21 21 21
8 9 10 10 11 11 11 12 12 12 11 10 9 8 8 8 8 8 8 9 10 11 11 12 12 12 13 14 15 16 17 17 18 18 18 18 18 18 18 18 18 18 18 18
8 9 10 11 12 13 13 13 12 12 11 11 10 9 8 7 7 7 8 9 9 10 11 11 11 11 12 14 15 16 17 17 17 17 17 16 16 16 17 17 16 16 16 16
8 10 11 13 14 14 14 14 13 12 12 11 10 9 9 8 9 9 9 9 10 9 10 10 11 11 13 15 16 16 17 16 16 16 15 15 15 15 15 15 14 14 14 14
Wind_Direction
256 250 242 239 236 213 207 218 218 217 223 226 222 217 213 219 224 228 228 227 227 229 233 234 233 235 237 239 241 245 247 251 254 256 256 258 261 264 270 274 275 276 278 280
257 258 240 228 231 218 210 200 196 203 212 217 216 213 212 216 222 223 226 227 226 231 235 237 235 235 239 239 242 243 244 249 255 256 257 261 265 266 271 276 277 278 279 281
251 245 251 236 229 223 211 199 197 204 212 214 211 215 217 217 222 222 222 224 228 232 234 232 233 235 237 237 241 246 245 250 256 257 257 262 266 270 273 274 274 274 277 279
256 253 248 242 230 219 213 204 201 203 204 211 210 217 224 222 223 225 225 228 229 228 231 234 235 235 237 241 242 244 245 248 255 258 260 263 266 270 274 275 274 274 277 280
246 253 249 240 227 213 201 208 204 201 198 201 209 218 225 226 226 226 228 231 233 234 234 237 240 239 241 244 243 244 246 249 255 260 263 266 270 271 275 279 283 282 282 283
246 239 239 231 221 210 195 202 211 207 204 205 200 218 235 231 228 226 227 231 236 237 237 238 239 242 243 246 245 247 251 253 258 264 268 272 275 279 282 282 286 288 289 288
270 245 236 222 211 208 196 190 197 206 210 212 205 218 233 232 228 225 223 226 232 235 236 237 238 241 246 248 250 252 255 257 260 265 268 273 276 278 282 286 290 290 291 292
249 240 239 224 202 204 200 182 182 198 213 221 223 230 236 239 237 229 225 227 231 235 235 237 239 242 245 248 253 256 257 259 260 264 267 272 277 281 284 287 291 292 294 296
247 221 217 221 195 190 198 184 185 214 206 211 217 228 240 247 250 242 233 232 233 235 235 236 239 243 245 248 252 255 257 259 262 265 268 272 277 282 285 288 291 293 295 295
230 188 189 202 195 189 189 191 204 218 223 229 232 228 235 243 245 243 238 235 234 234 235 236 239 243 246 249 252 255 258 262 265 267 269 273 277 280 284 286 290 292 293 293
230 197 182 194 196 194 190 194 205 218 236 243 248 237 233 232 232 235 236 236 236 237 238 239 242 244 247 250 253 257 260 264 266 269 270 274 277 280 283 286 288 290 292 293
226 205 186 180 180 193 205 200 207 215 228 242 272 274 251 227 223 228 233 236 236 237 240 243 246 249 251 253 256 259 262 265 268 270 273 275 278 281 283 286 288 290 291 291
204 206 184 183 191 192 199 205 210 216 225 236 264 274 264 247 234 234 238 239 240 241 243 246 249 251 254 257 259 262 265 267 271 273 276 278 279 282 284 286 287 288 287 287
208 211 204 194 199 197 195 205 215 219 225 237 251 266 275 275 264 257 252 249 248 247 248 250 253 255 258 259 261 264 267 269 272 274 276 278 280 282 284 284 285 285 286 287
239 234 217 203 183 187 195 204 214 220 225 232 243 257 263 260 258 257 257 256 255 254 255 257 258 260 261 263 265 267 269 271 273 275 276 277 278 280 281 282 284 285 286 287
277 276 218 184 190 209 222 225 230 230 233 237 242 253 265 272 272 268 264 262 260 258 258 258 259 261 262 265 267 269 270 271 273 274 275 276 277 278 280 282 284 285 287 289
318 326 275 291 267 260 254 245 244 246 247 249 254 258 265 271 274 273 269 264 261 260 259 261 262 264 265 266 267 269 270 271 272 273 275 276 278 279 281 284 286 287 289 291
23 10 36 299 283 275 274 271 263 259 257 261 262 263 269 272 271 270 267 264 262 261 262 264 264 265 265 266 269 271 272 272 272 274 276 278 279 281 284 286 288 290 293 296
34 35 42 20 314 299 294 289 283 278 272 269 270 271 273 274 272 269 268 267 266 265 265 266 267 268 270 271 271 273 275 274 275 276 278 280 282 284 287 289 292 294 297 300
34 32 28 2 306 300 307 301 296 291 288 281 278 276 276 274 272 269 268 269 270 270 270 269 269 270 273 275 277 277 279 279 280 282 282 284 287 289 291 294 297 299 301 303
29 24 13 355 332 323 318 316 308 304 300 293 288 284 279 274 273 272 271 271 272 273 272 271 272 274 276 278 279 281 282 283 283 284 287 289 291 293 296 298 300 302 304 306
21 17 9 1 354 340 331 328 325 319 313 308 301 295 290 284 279 277 273 272 272 273 272 274 277 278 278 279 282 283 284 285 287 288 291 294 296 297 299 301 303 305 306 309
17 15 11 6 358 349 345 339 336 334 330 324 320 310 303 302 297 290 285 283 279 280 282 284 285 285 284 285 287 288 288 290 292 293 294 295 296 298 300 302 304 306 308 310
20 14 12 8 2 357 352 349 345 343 343 341 337 332 323 317 315 313 308 299 292 288 286 287 288 290 292 294 295 296 296 296 295 295 294 294 296 298 300 303 305 307 308 311
19 16 14 11 7 4 360 355 352 351 351 350 348 345 340 338 333 328 324 317 311 304 298 297 299 301 302 302 302 300 299 298 296 294 293 294 297 299 302 304 305 306 309 312
19 16 14 11 9 7 5 1 358 355 354 354 354 353 348 347 345 340 335 330 325 319 315 311 310 309 307 306 304 303 301 299 296 293 292 293 297 300 302 303 305 307 309 312
Height
5767 5770 5771 5773 5775 5778 5782 5786 5791 5796 5798 5799 5803 5808 5812 5815 5819 5823 5826 5829 5831 5834 5836 5838 5841 5843 5848 5852 5854 5856 5858 5860 5862 5863 5864 5866 5866 5867 5868 5869 5869 5869 5868 5868
5766 5767 5769 5771 5774 5776 5778 5782 5787 5792 5794 5796 5799 5803 5806 5810 5815 5819 5822 5825 5827 5828 5831 5834 5836 5838 5843 5847 5849 5851 5853 5855 5857 5858 5859 5861 5861 5862 5863 5863 5863 5863 5862 5862
5764 5766 5767 5768 5770 5773 5775 5779 5784 5788 5791 5793 5796 5800 5802 5807 5811 5814 5816 5818 5822 5822 5826 5827 5829 5831 5837 5840 5843 5846 5849 5851 5852 5853 5854 5855 5856 5857 5857 5857 5856 5856 5856 5854
5762 5763 5764 5765 5767 5769 5773 5777 5780 5784 5788 5791 5795 5798 5799 5802 5806 5809 5811 5813 5815 5817 5820 5822 5823 5827 5832 5835 5838 5840 5843 5845 5846 5847 5849 5849 5850 5850 5850 5850 5849 5849 5849 5848
5760 5761 5761 5763 5765 5767 5771 5775 5777 5781 5785 5789 5792 5795 5796 5797 5800 5803 5805 5808 5811 5814 5817 5819 5820 5824 5827 5830 5831 5834 5837 5839 5841 5842 5842 5842 5843 5843 5843 5843 5842 5842 5842 5841
5756 5757 5759 5761 5763 5765 5768 5773 5776 5779 5783 5785 5789 5793 5791 5791 5793 5798 5801 5805 5807 5810 5813 5814 5817 5820 5823 5825 5826 5829 5831 5834 5835 5836 5836 5837 5837 5838 5837 5836 5836 5835 5834 5834
5754 5755 5755 5757 5760 5763 5766 5771 5776 5779 5781 5784 5787 5788 5786 5785 5788 5792 5796 5800 5803 5806 5808 5810 5812 5815 5818 5820 5821 5823 5826 5828 5829 5830 5831 5831 5831 5831 5831 5830 5829 5828 5827 5826
5751 5753 5754 5755 5757 5761 5764 5769 5774 5780 5783 5786 5787 5784 5782 5782 5785 5789 5792 5796 5799 5802 5804 5806 5808 5811 5813 5815 5817 5819 5820 5822 5823 5824 5824 5824 5825 5824 5823 5822 5822 5821 5820 5819
5748 5750 5752 5754 5756 5760 5764 5767 5771 5773 5775 5779 5780 5779 5779 5781 5784 5787 5790 5793 5795 5798 5799 5801 5803 5805 5808 5810 5811 5813 5814 5816 5817 5817 5818 5818 5818 5817 5816 5815 5815 5813 5812 5811
5748 5748 5751 5753 5756 5759 5763 5767 5770 5772 5772 5774 5774 5775 5776 5778 5780 5783 5786 5789 5791 5793 5795 5796 5798 5800 5802 5804 5805 5807 5808 5809 5809 5810 5810 5811 5811 5810 5809 5808 5807 5805 5804 5803
5748 5748 5750 5752 5755 5758 5761 5765 5767 5770 5771 5771 5769 5770 5768 5771 5774 5777 5780 5783 5786 5788 5790 5792 5793 5795 5797 5798 5800 5801 5802 5802 5803 5803 5803 5803 5803 5802 5801 5800 5799 5797 5795 5793
5746 5747 5749 5751 5754 5758 5760 5762 5765 5767 5768 5767 5766 5766 5758 5760 5767 5771 5775 5778 5780 5782 5785 5786 5788 5789 5791 5792 5793 5794 5795 5796 5796 5796 5796 5795 5795 5794 5793 5791 5790 5788 5786 5784
5746 5747 5748 5751 5754 5756 5758 5760 5762 5764 5765 5765 5763 5762 5755 5756 5762 5767 5771 5773 5775 5777 5779 5780 5782 5783 5785 5786 5787 5787 5787 5788 5788 5788 5788 5787 5786 5785 5783 5782 5780 5778 5776 5774
5746 5746 5747 5749 5750 5752 5755 5758 5760 5761 5763 5762 5760 5758 5756 5758 5761 5763 5766 5768 5770 5771 5773 5774 5775 5776 5777 5778 5779 5779 5780 5780 5780 5779 5779 5778 5777 5775 5774 5772 5770 5768 5766 5764
5745 5745 5745 5746 5748 5751 5753 5754 5756 5757 5757 5758 5757 5756 5755 5755 5757 5759 5761 5762 5764 5765 5766 5767 5768 5769 5769 5770 5770 5771 5771 5770 5770 5769 5769 5768 5767 5765 5764 5762 5760 5758 5756 5754
5746 5746 5746 5747 5748 5749 5750 5752 5752 5753 5754 5754 5754 5753 5750 5751 5752 5754 5755 5756 5757 5758 5759 5759 5760 5761 5761 5761 5762 5761 5761 5761 5760 5760 5759 5758 5757 5755 5754 5752 5750 5748 5746 5744
5746 5746 5746 5747 5748 5748 5749 5750 5750 5750 5750 5750 5750 5750 5747 5747 5748 5749 5750 5750 5751 5751 5752 5752 5752 5753 5753 5753 5753 5753 5752 5752 5751 5750 5750 5749 5748 5746 5745 5743 5741 5739 5737 5735
5747 5746 5746 5747 5748 5747 5749 5747 5747 5747 5746 5745 5744 5744 5742 5742 5743 5743 5743 5744 5744 5744 5745 5745 5745 5745 5745 5744 5744 5744 5744 5743 5743 5742 5741 5740 5739 5738 5736 5735 5733 5731 5728 5726
5748 5747 5747 5747 5747 5746 5745 5744 5744 5743 5742 5741 5740 5739 5738 5737 5738 5738 5738 5738 5738 5738 5738 5738 5738 5738 5737 5737 5737 5736 5736 5735 5735 5734 5733 5732 5731 5729 5728 5726 5724 5722 5720 5717
5749 5748 5747 5746 5746 5745 5745 5742 5741 5740 5738 5737 5735 5734 5733 5733 5733 5733 5733 5732 5732 5732 5732 5732 5732 5731 5731 5730 5730 5730 5729 5728 5727 5727 5726 5725 5723 5722 5721 5719 5717 5715 5712 5709
5750 5749 5748 5746 5745 5744 5742 5740 5739 5738 5737 5734 5732 5731 5730 5729 5729 5729 5728 5728 5727 5727 5727 5727 5726 5726 5725 5724 5724 5723 5723 5722 5721 5720 5719 5718 5717 5715 5714 5712 5710 5708 5705 5702
5751 5750 5748 5747 5745 5745 5741 5739 5738 5736 5733 5731 5729 5728 5726 5726 5725 5725 5724 5724 5723 5723 5723 5722 5721 5721 5720 5719 5719 5718 5717 5716 5715 5714 5713 5712 5711 5709 5708 5706 5704 5701 5699 5696
5752 5751 5749 5748 5747 5743 5740 5738 5736 5733 5731 5729 5727 5725 5724 5723 5722 5722 5721 5720 5720 5719 5719 5718 5717 5716 5716 5715 5714 5713 5712 5711 5710 5709 5707 5706 5705 5704 5702 5700 5698 5696 5694 5691
5753 5751 5749 5747 5745 5742 5740 5737 5735 5732 5730 5728 5726 5724 5723 5722 5721 5720 5719 5718 5717 5716 5715 5715 5714 5713 5712 5711 5709 5708 5707 5706 5705 5703 5702 5701 5700 5698 5697 5695 5693 5691 5689 5687
5754 5752 5750 5748 5745 5742 5740 5737 5734 5732 5729 5727 5725 5723 5722 5721 5720 5718 5717 5716 5715 5714 5713 5711 5710 5709 5708 5707 5705 5704 5702 5701 5700 5698 5697 5696 5695 5693 5692 5690 5689 5687 5685 5683
5754 5753 5751 5749 5746 5743 5740 5737 5734 5732 5729 5727 5725 5723 5722 5720 5719 5717 5716 5714 5713 5711 5710 5708 5707 5706 5704 5703 5701 5699 5697 5696 5694 5693 5692 5691 5690 5689 5688 5686 5685 5683 5681 5679